DELTA 1 DEB, 26841

Orbit data source: Space-Track

DELTA 1 DEB, 26841 is space debris in SSO originally from a launch on Thu, 12 Jun 1975 UTC launched from the Air Force Western Test Range (AFWTR). Debris objects in space refer to the collection of defunct objects orbiting the Earth. Examples of debris include non-operational satellites, rocket bodies, and fragments generated from explosions, collisions, or faulty payload assembly.

Loading next visibility...
Identifier
26841, 1975-052KV
Orbit
SSO
Country
Flag of USUS
Related business
Manufacturer
Unknown
Mission
Spacecraft
Bus & Motor
Unknown
Mass
Unknown
Launch date (UTC)
1975-06-12 (51 years ago)
Launch vehicle
Unknown
Launch site
Air Force Western Test Range (AFWTR)
Object type
Payload
Rocket body
Debris
Shape & HBR
Unknown shape, 0.1 m
Radar Cross Section
Medium (>0.1 m² and <1 m²)

Expand to show TLE details & history
Last TLE update: 2 days ago

TLE from 2 days ago
0 DELTA 1 DEB
1 26841U 75052KV  26171.42839044  .00001769  00000-0  39799-2 0  9993
2 26841  99.9031 143.5947 0503035 166.1274 346.9200 12.89409421571513
Epoch: 2026-06-20T10:16Z
TLE epoch observation values (Epoch: 2026-06-20T10:16:52.934Z)
Latitude
27.92672°
Longitude
-93.9873°
Altitude
931.722 km
Speed
7.567 km/s
True Right ascension
21h 55m 30s
True Declination
27° 47' 17"
Sunlit
Object was in daylight at epoch
Visualization orbit readout
Latitude
Unknown
Longitude
Unknown
Altitude
Unknown
Speed
Unknown
Apparent Right ascension
Unknown
Apparent Declination
Unknown
Sunlit
N/A
Visualization observer readout
Local Sidereal Time
00:50:04
Azimuth
Unknown
Elevation
Unknown
Doppler factor
Unknown
Orbital elements
Apogee altitude
1,687.552 km
Perigee altitude
914.952 km
Semi-major axis
7,679.389 km
Eccentricity
0.0503
Inclination
99.9031°
RAAN
143.5947°
Arg. of periapsis
166.1274°
True anomaly
345.53073°
Mean anomaly
346.92°
Eccentric anomaly
346.23417°
Mean motion
3.22517 °/min
Orbital period
111.62 mins
BSTAR
0.0039799
Loading maneuver chart data...
Computing Atmospheric mass density...

Documentation

Showing up to 5 results
|